Change the Weather History Date:

Sunday, April 7, 2013

  Actual Average Record
Temperature  
Mean Temperature 40 °F -  
Max Temperature 46 °F 53 °F 84 °F (1991)
Min Temperature 33 °F 33 °F 12 °F (2007)
Degree Days  
Heating Degree Days 26    
Moisture  
Dew Point 34 °F    
Average Humidity 84    
Maximum Humidity 100    
Minimum Humidity 71    
Precipitation  
Precipitation 0.00 in - - ()
Sea Level Pressure  
Sea Level Pressure 29.84 in    
Wind  
Wind Speed 6 mph (SSW)    
Max Wind Speed 12 mph    
Max Gust Speed -    
Visibility 8 miles    
Events      
Averages and records for this station are not official NWS values.
T = Trace of Precipitation, MM = Missing Value Source: NWS Daily Summary

Daily Weather History Graph

Daily Weather History Graph

Search for Another Location

Airport or City:

Trip Planner

Search our weather history database for the weather conditions in past years. The results will help you decide how hot, cold, wet, or windy it might be!

Date:

Astronomy

Apr. 07, 2013 Rise Set
Actual Time 6:42 AM CDT 7:48 PM CDT
Civil Twilight 6:12 AM CDT 8:18 PM CDT
Nautical Twilight 5:36 AM CDT 8:53 PM CDT
Astronomical Twilight 4:59 AM CDT 9:31 PM CDT
Moon 5:06 AM CDT (4/7) 5:16 PM CDT (4/7)
Length of Visible Light 14h 05m
Length of Day
13h 05m
Waning Crescent, 8% of the Moon is Illuminated
Apr 7
Waning Crescent
Apr 10
New
Apr 18
First Quarter
Apr 25
Full
May 2
Last Quarter

Hourly Weather History & Observations

Time (CDT) Temp. Windchill Dew Point Humidity Pressure Visibility Wind Dir Wind Speed Gust Speed Precip Events Conditions
12:01 AM 35.6 °F 29.2 °F 33.8 °F 93% 29.75 in 7.0 mi WNW 8.1 mph - N/A   Overcast
12:21 AM 35.6 °F 30.7 °F 33.8 °F 93% 29.76 in 7.0 mi WNW 5.8 mph - N/A   Overcast
12:41 AM 35.6 °F 30.7 °F 33.8 °F 93% 29.77 in 10.0 mi WNW 5.8 mph - N/A   Overcast
1:01 AM 35.6 °F 31.7 °F 33.8 °F 93% 29.77 in 10.0 mi WNW 4.6 mph - N/A   Overcast
1:21 AM 35.6 °F 32.8 °F 33.8 °F 93% 29.77 in 7.0 mi West 3.5 mph - N/A   Overcast
1:41 AM 35.6 °F 31.7 °F 33.8 °F 93% 29.78 in 7.0 mi West 4.6 mph - N/A   Overcast
2:01 AM 35.6 °F 30.7 °F 33.8 °F 93% 29.78 in 7.0 mi WNW 5.8 mph - N/A   Overcast
2:21 AM 35.6 °F 29.9 °F 33.8 °F 93% 29.78 in 7.0 mi WNW 6.9 mph - N/A   Overcast
2:41 AM 35.6 °F 30.7 °F 33.8 °F 93% 29.78 in 7.0 mi WNW 5.8 mph - N/A   Overcast
3:01 AM 35.6 °F 31.7 °F 33.8 °F 93% 29.78 in 7.0 mi West 4.6 mph - N/A   Overcast
3:21 AM 35.6 °F 29.9 °F 32.0 °F 87% 29.79 in 7.0 mi West 6.9 mph - N/A   Overcast
3:41 AM 33.8 °F 28.6 °F 32.0 °F 93% 29.79 in 7.0 mi WNW 5.8 mph - N/A   Overcast
4:01 AM 35.6 °F 28.6 °F 32.0 °F 87% 29.80 in 10.0 mi WNW 9.2 mph - N/A   Overcast
4:21 AM 35.6 °F 28.6 °F 30.2 °F 81% 29.82 in 10.0 mi WNW 9.2 mph - N/A   Overcast
4:41 AM 33.8 °F 25.8 °F 30.2 °F 87% 29.82 in 10.0 mi WNW 10.4 mph - N/A   Overcast
5:01 AM 33.8 °F 27.7 °F 30.2 °F 87% 29.83 in 10.0 mi West 6.9 mph - N/A   Overcast
5:21 AM 33.8 °F 28.6 °F 30.2 °F 87% 29.84 in 7.0 mi West 5.8 mph - N/A   Overcast
5:41 AM 33.8 °F 28.6 °F 30.2 °F 87% 29.84 in 10.0 mi WNW 5.8 mph - N/A   Overcast
6:01 AM 33.8 °F 29.6 °F 30.2 °F 87% 29.85 in 10.0 mi WNW 4.6 mph - N/A   Overcast
6:21 AM 33.8 °F 29.6 °F 30.2 °F 87% 29.86 in 10.0 mi West 4.6 mph - N/A   Overcast
6:41 AM 33.8 °F 29.6 °F 30.2 °F 87% 29.87 in 7.0 mi West 4.6 mph - N/A   Overcast
7:01 AM 33.8 °F 30.8 °F 30.2 °F 87% 29.87 in 7.0 mi West 3.5 mph - N/A   Overcast
7:21 AM 33.8 °F - 30.2 °F 87% 29.88 in 7.0 mi West 1.2 mph - N/A   Overcast
7:41 AM 33.8 °F 30.8 °F 30.2 °F 87% 29.88 in 7.0 mi West 3.5 mph - N/A   Overcast
8:01 AM 33.8 °F - 30.2 °F 87% 29.89 in 7.0 mi WSW 2.3 mph - N/A   Overcast
8:41 AM 35.6 °F 30.7 °F 32.0 °F 87% 29.90 in 7.0 mi West 5.8 mph - N/A   Overcast
9:01 AM 35.6 °F 32.8 °F 32.0 °F 87% 29.90 in 7.0 mi West 3.5 mph - N/A   Overcast
9:21 AM 35.6 °F 30.7 °F 32.0 °F 87% 29.90 in 10.0 mi WNW 5.8 mph - N/A   Overcast
9:41 AM 35.6 °F 32.8 °F 30.2 °F 81% 29.91 in 10.0 mi WSW 3.5 mph - N/A   Overcast
10:01 AM 35.6 °F 31.7 °F 30.2 °F 81% 29.92 in 7.0 mi West 4.6 mph - N/A   Overcast
10:21 AM 37.4 °F 34.9 °F 30.2 °F 75% 29.93 in 7.0 mi West 3.5 mph - N/A   Overcast
10:41 AM 37.4 °F - 30.2 °F 75% 29.93 in 7.0 mi West 2.3 mph - N/A   Overcast
11:01 AM 37.4 °F - 30.2 °F 75% 29.94 in 7.0 mi SW 2.3 mph - N/A   Overcast
11:21 AM 37.4 °F - 30.2 °F 75% 29.94 in 10.0 mi South 2.3 mph - N/A   Overcast
11:41 AM 37.4 °F - 30.2 °F 75% 29.94 in 10.0 mi SSW 1.2 mph - N/A   Overcast
12:01 PM 37.4 °F 33.8 °F 32.0 °F 81% 29.93 in 10.0 mi SSW 4.6 mph - N/A   Overcast
12:21 PM 37.4 °F - 30.2 °F 75% 29.93 in 10.0 mi WSW 1.2 mph - N/A   Overcast
12:41 PM 37.4 °F 34.9 °F 32.0 °F 81% 29.93 in 10.0 mi South 3.5 mph - N/A   Overcast
1:01 PM 37.4 °F 32.8 °F 32.0 °F 81% 29.92 in 10.0 mi SE 5.8 mph - N/A   Overcast
1:21 PM 39.2 °F 35.0 °F 32.0 °F 75% 29.91 in 10.0 mi SE 5.8 mph - N/A   Overcast
1:41 PM 39.2 °F 35.0 °F 33.8 °F 81% 29.91 in 10.0 mi SE 5.8 mph - N/A   Overcast
2:01 PM 39.2 °F 35.9 °F 33.8 °F 81% 29.90 in 10.0 mi South 4.6 mph - N/A   Overcast
2:21 PM 41.0 °F - 33.8 °F 76% 29.89 in 10.0 mi East 2.3 mph - N/A   Overcast
2:41 PM 42.8 °F 37.5 °F 35.6 °F 76% 29.88 in 10.0 mi ESE 9.2 mph - N/A   Overcast
3:01 PM 42.8 °F 37.5 °F 35.6 °F 76% 29.86 in 10.0 mi SE 9.2 mph - N/A   Scattered Clouds
3:21 PM 44.6 °F 40.7 °F 35.6 °F 71% 29.86 in 10.0 mi East 6.9 mph - N/A   Scattered Clouds
3:41 PM 44.6 °F 40.2 °F 35.6 °F 71% 29.85 in 10.0 mi SSE 8.1 mph - N/A   Scattered Clouds
4:01 PM 44.6 °F 39.7 °F 37.4 °F 76% 29.84 in 10.0 mi ESE 9.2 mph - N/A   Mostly Cloudy
4:21 PM 44.6 °F 40.7 °F 37.4 °F 76% 29.84 in 10.0 mi SE 6.9 mph - N/A   Scattered Clouds
4:41 PM 46.4 °F 41.9 °F 37.4 °F 71% 29.84 in 10.0 mi SE 9.2 mph - N/A   Scattered Clouds
5:01 PM 46.4 °F 41.5 °F 37.4 °F 71% 29.83 in 10.0 mi SE 10.4 mph - N/A   Clear
5:21 PM 46.4 °F 41.9 °F 37.4 °F 71% 29.83 in 10.0 mi SE 9.2 mph - N/A   Clear
5:41 PM 46.4 °F 41.5 °F 39.2 °F 76% 29.82 in 10.0 mi SE 10.4 mph - N/A   Scattered Clouds
6:01 PM 46.4 °F 43.5 °F 39.2 °F 76% 29.83 in 10.0 mi SE 5.8 mph - N/A   Scattered Clouds
6:21 PM 46.4 °F 43.5 °F 39.2 °F 76% 29.82 in 10.0 mi ESE 5.8 mph - N/A   Scattered Clouds
6:41 PM 46.4 °F 43.5 °F 39.2 °F 76% 29.81 in 10.0 mi ESE 5.8 mph - N/A   Scattered Clouds
7:01 PM 46.4 °F 42.9 °F 39.2 °F 76% 29.82 in 10.0 mi East 6.9 mph - N/A   Scattered Clouds
7:21 PM - - - N/A% 29.81 in 10.0 mi East 8.1 mph - N/A   Scattered Clouds
7:41 PM 44.6 °F 41.4 °F 39.2 °F 81% 29.81 in 10.0 mi East 5.8 mph - N/A   Mostly Cloudy
8:03 PM 42.8 °F 40.1 °F 39.2 °F 87% 29.82 in 10.0 mi ESE 4.6 mph - N/A   Mostly Cloudy
8:21 PM 42.8 °F 40.1 °F 37.4 °F 81% 29.82 in 10.0 mi East 4.6 mph - N/A   Mostly Cloudy
8:41 PM 42.8 °F 38.6 °F 37.4 °F 81% 29.81 in 10.0 mi East 6.9 mph - N/A   Overcast
9:01 PM 41.0 °F 34.3 °F 37.4 °F 87% 29.80 in 7.0 mi East 11.5 mph - N/A   Overcast
9:21 PM 41.0 °F 36.4 °F 37.4 °F 87% 29.81 in 7.0 mi ESE 6.9 mph - N/A   Overcast
9:41 PM 41.0 °F 37.1 °F 37.4 °F 87% 29.81 in 7.0 mi ESE 5.8 mph - N/A   Overcast
10:01 PM 41.0 °F 38.0 °F 37.4 °F 87% 29.82 in 5.0 mi SE 4.6 mph - N/A   Overcast
10:21 PM 39.2 °F 34.2 °F 37.4 °F 93% 29.80 in 7.0 mi East 6.9 mph - N/A   Overcast
10:41 PM 39.2 °F 33.6 °F 37.4 °F 93% 29.78 in 5.0 mi East 8.1 mph - N/A   Overcast
11:01 PM 39.2 °F 33.0 °F 37.4 °F 93% 29.76 in 4.0 mi East 9.2 mph - N/A   Overcast
11:21 PM 39.2 °F 33.0 °F 37.4 °F 93% 29.76 in 4.0 mi ESE 9.2 mph - N/A   Overcast
11:41 PM 39.2 °F 33.6 °F 39.2 °F 100% 29.75 in 4.0 mi ESE 8.1 mph - N/A   Overcast